Weather in Tyubingen

Germany     48°30′54″N   9°03′38″E
temp.,
°C
wind,
m/s
gust,
m/s
humid.,
%
clouds,
%
prec.,
mm/h
press.,
hPa
HPBL,
m
16 may, sun
sun1623:00+8ssw389690 3.6 1008487
02:00+6ssw3994100 3.6 1009249
05:00+8sw51194100 1.1 1008656
08:00+10ssw48914 1.6 1007650
11:00+12wsw587921 0.9 10061215
14:00+12sw6984100 2.6 10051397
17:00+11ssw4788100 1.6 1004617
20:00+10ssw5109092 2.4 1004565
17 may, mon
mon1723:00+9sw512915 2.1 1006617
02:00+7wsw513925 2.1 1007591
05:00+7wsw71387100 0.0 10081087
08:00+7sw71489100 0.2 10101138
11:00+7sw61190100 0.1 10111005
14:00+8sw7128565 0.3 10121023
17:00+10wsw8137779 0.2 10121272
20:00+9wsw6128299 0.3 10131001
18 may, tue
tue1823:00+7sw5138599 0.0 1014557
02:00+6sw410915 0.0 1015292
05:00+7sw41189100 0.0 1015517
08:00+9sw6128224 0.1 10151230
11:00+11w7107626 0.5 10151352
14:00+11w7107812 1.8 10161220
17:00+11w811676 0.4 10161497
20:00+9w598014 0.4 1017697
19 may, wed
wed1923:00+5sw369420 0.0 1019110
02:00+4ssw379496 0.0 1020129
05:00+4ssw35913 0.0 101991
08:00+7sw258093 0.0 1019262
11:00+11wsw4576100 1.0 10171212
14:00+12w2374100 3.0 1016916
17:00+11nw348089 2.7 1016819
20:00+8wnw129196 4.1 101890
20 may, thu
thu2023:00+4sw229496 0.1 102034
02:00+5wsw259492 0.1 1021138
05:00+6wsw379692 0.3 1022268
08:00+8w4894100 0.7 1023585
11:00+12w346028 0.2 10241605
14:00+13wsw336028 0.8 10231470
17:00+14wnw246286 1.3 10221499
20:00+11nw1174100 1.4 102115